Regional Weather Roundup
Issued by NWS Little Rock, AR

Home | Current Version | Previous Version | Graphics & Text | Print | Product List | Glossary On
Versions: 1 2 3 4 5 6 7 8 9 10 11 12 13 14 15 16 17 18 19 20 21 22 23 24 25 26 27
000
ASUS44 KLZK 280105
RWRLZK

WEATHER ROUNDUP FOR ARKANSAS
NATIONAL WEATHER SERVICE LITTLE ROCK AR
800 PM CDT FRI MAY 27 2016

NOTE: "FAIR" INDICATES FEW OR NO CLOUDS BELOW 12,000 FEET WITH NO
SIGNIFICANT WEATHER AND/OR OBSTRUCTIONS TO VISIBILITY.

ARZ001-003-010-029-280200-
NORTHWEST ARKANSAS

CITY           SKY/WX    TMP DP  RH WIND       PRES   REMARKS
FAYETTEVILLE   MOCLDY    69  65  86 SE9       29.74S
FORT SMITH     CLOUDY    72  62  71 S7        29.75R
HARRISON       CLOUDY    70  63  78 S12       29.79R
BENTONVILLE    CLOUDY    72  61  68 S10G20    29.74F
ROGERS         CLOUDY    71  64  78 SE12      29.75S
SILOAM SPGS    CLOUDY    70  57  64 S7        29.75R
HIGHFILL       CLOUDY    71  64  78 S12       29.73S
SPRINGDALE     PTCLDY    72  64  78 SE10      29.76S
$$

ARZ004-005-016-280200-
NORTH CENTRAL ARKANSAS

CITY           SKY/WX    TMP DP  RH WIND       PRES   REMARKS
BATESVILLE     CLOUDY    72  66  83 S6        29.84R
FLIPPIN        MOCLDY   N/A N/A N/A S6        29.76R
MTN HOME       MOCLDY    72  65  78 S6        29.78R
$$

ARZ040-041-280200-
WEST CENTRAL ARKANSAS

CITY           SKY/WX    TMP DP  RH WIND       PRES   REMARKS
MENA           CLOUDY    70  64  83 CALM      29.79S
MOUNT IDA      CLOUDY    69  64  84 CALM      29.77S
$$

ARZ009-017-025-026-028-280200-
NORTHEAST ARKANSAS

CITY           SKY/WX    TMP DP  RH WIND       PRES   REMARKS
CORNING          N/A     73  72  94 S23G30    29.83R
JONESBORO      CLOUDY    72  70  93 S14       29.85R
NEWPORT        CLOUDY    71  69  93 SE14      29.86R
WALNUT RIDGE   CLOUDY    72  66  83 S20G25    29.83R
BLYTHEVILLE    RAIN      72  68  87 S16G26    29.89R
$$

ARZ022-023-033-042-044-280200-
CENTRAL ARKANSAS

CITY           SKY/WX    TMP DP  RH WIND       PRES   REMARKS
N LITTLE ROCK    N/A     71  65  81 S5        29.81R
JACKSONVILLE   CLOUDY    73  66  79 SE2       29.83R
SEARCY         CLOUDY    72  70  94 SE10      29.87R
HOT SPRINGS    CLOUDY    69  64  84 E6        29.79F
RUSSELLVILLE   CLOUDY    72  63  73 S7        29.79R
CLINTON        FAIR      73  66  78 SE7       29.82R
$$

ARZ036-280200-
EAST ARKANSAS

CITY           SKY/WX    TMP DP  RH WIND       PRES   REMARKS
WEST MEMPHIS   LGT RAIN  70  67  90 SE17      29.86F
$$

ARZ050-053-066-070-073-280200-
SOUTHWEST ARKANSAS

CITY           SKY/WX    TMP DP  RH WIND       PRES   REMARKS
ARKADELPHIA    FAIR      69  67  93 CALM      29.81R
CAMDEN         CLOUDY    68  63  83 CALM      29.81R
TEXARKANA      CLOUDY    67  64  90 CALM      29.76R
EL DORADO      LGT RAIN  67  65  93 SE16G23   29.81R
DE QUEEN       CLOUDY    68  66  93 CALM      29.75S
$$

ARZ056-057-069-280200-
SOUTHEAST ARKANSAS

CITY           SKY/WX    TMP DP  RH WIND       PRES   REMARKS
PINE BLUFF     LGT RAIN  72  65  78 SE7       29.85R
STUTTGART      CLOUDY    72  66  83 E10       29.87R
MONTICELLO     CLOUDY    70  66  87 S16G24    29.86R

$$






USA.gov is the U.S. government's official web portal to all federal, state and local government web resources and services.